Ionia, MI

2:53 PM EST on November 17, 2019 (GMT -0500)
Ionia

Weather History for KY70 - October, 2019

Change the Weather History Date:

Monday, October 21, 2019

  Actual Average (KGRR) Record (KGRR)
Temperature  
Mean Temperature 54 °F -  
Max Temperature 63 °F 57 °F 85 °F (1953)
Min Temperature 46 °F 39 °F 18 °F (1974)
Degree Days  
Heating Degree Days 10    
Growing Degree Days 4 (Base 50)    
Moisture  
Dew Point 52 °F    
Average Humidity 85    
Maximum Humidity 94    
Minimum Humidity 67    
Precipitation  
Precipitation 0.16 in - - ()
Sea Level Pressure  
Sea Level Pressure 29.73 in    
Wind  
Wind Speed 9 mph ()    
Max Wind Speed 28 mph    
Max Gust Speed 36 mph    
Visibility 9.6 miles    
Events Rain    
Averages and records for this station are not official NWS values.
T = Trace of Precipitation, MM = Missing Value Source: Averaged Metar Reports

Daily Weather History Graph

Daily Weather History Graph

Search for Another Location

Airport or City:

Astronomy

Oct. 21, 2019 Rise Set
Actual Time 8:00 AM EDT 6:48 PM EDT
Civil Twilight 7:31 AM EDT 7:17 PM EDT
Nautical Twilight 6:58 AM EDT 7:50 PM EDT
Astronomical Twilight 6:25 AM EDT 8:22 PM EDT
Moon No Moon Rise 3:23 PM EDT (10/21)
Length of Visible Light 11h 45m
Length of Day
10h 47m
Waning Gibbous, 48% of the Moon is Illuminated
Oct 21
Waning Gibbous
Oct 27
New
Nov 4
First Quarter
Nov 12
Full
Nov 19
Last Quarter

Hourly Weather History & Observations

Time (EDT) Temp. Windchill Dew Point Humidity Pressure Visibility Wind Dir Wind Speed Gust Speed Precip Events Conditions
12:15 AM 46.2 °F 44.1 °F 44.4 °F 93% 29.95 in 10.0 mi East 4.6 mph - N/A   Mostly Cloudy
12:16 AM 46.0 °F 43.9 °F 44.2 °F 93% 29.95 in 10.0 mi East 4.6 mph - N/A   Mostly Cloudy
12:39 AM 49.1 °F - 47.1 °F 93% 29.95 in 10.0 mi East 4.6 mph - N/A   Overcast
12:57 AM 50.2 °F - 46.9 °F 89% 29.94 in 10.0 mi ENE 5.8 mph - N/A   Overcast
1:16 AM 51.8 °F - 48.2 °F 88% 29.95 in 10.0 mi East 6.9 mph - N/A   Overcast
1:35 AM 51.6 °F - 48.2 °F 88% 29.95 in 10.0 mi East 4.6 mph - N/A   Overcast
1:55 AM 52.2 °F - 47.8 °F 85% 29.94 in 10.0 mi ENE 5.8 mph - N/A   Scattered Clouds
1:59 AM 52.0 °F - 47.8 °F 86% 29.94 in 10.0 mi ENE 5.8 mph - N/A   Scattered Clouds
2:17 AM 53.4 °F - 48.4 °F 83% 29.93 in 10.0 mi ENE 4.6 mph - N/A   Mostly Cloudy
2:35 AM 52.7 °F - 48.2 °F 85% 29.93 in 10.0 mi ENE 4.6 mph - N/A   Overcast
2:55 AM 52.2 °F - 48.0 °F 86% 29.93 in 10.0 mi ENE 5.8 mph - N/A   Overcast
2:56 AM 52.2 °F - 48.2 °F 86% 29.93 in 10.0 mi ENE 5.8 mph - N/A   Overcast
3:15 AM 52.2 °F - 48.2 °F 86% 29.92 in 10.0 mi ENE 6.9 mph - N/A   Overcast
3:20 AM 52.2 °F - 48.2 °F 86% 29.92 in 10.0 mi East 5.8 mph - N/A   Mostly Cloudy
3:38 AM 51.8 °F - 48.2 °F 88% 29.91 in 10.0 mi ENE 6.9 mph - N/A   Mostly Cloudy
3:56 AM 51.8 °F - 48.2 °F 88% 29.91 in 10.0 mi ENE 6.9 mph - N/A   Overcast
4:15 AM 51.8 °F - 48.4 °F 88% 29.92 in 10.0 mi ENE 6.9 mph - N/A   Overcast
4:35 AM 52.0 °F - 48.6 °F 88% 29.92 in 10.0 mi East 5.8 mph - N/A   Overcast
4:36 AM 52.0 °F - 48.6 °F 88% 29.92 in 10.0 mi ENE 5.8 mph - N/A   Overcast
4:59 AM 51.8 °F - 48.4 °F 88% 29.92 in 10.0 mi East 6.9 mph - N/A   Overcast
5:17 AM 51.8 °F - 48.4 °F 88% 29.92 in 10.0 mi ENE 6.9 mph - N/A   Overcast
5:35 AM 51.3 °F - 48.2 °F 89% 29.91 in 10.0 mi ENE 6.9 mph - N/A   Overcast
5:55 AM 51.3 °F - 48.0 °F 89% 29.91 in 10.0 mi ENE 6.9 mph - N/A   Overcast
6:15 AM 51.3 °F - 47.7 °F 87% 29.91 in 10.0 mi ENE 6.9 mph - N/A   Overcast
6:38 AM 51.4 °F - 47.7 °F 87% 29.90 in 10.0 mi ENE 9.2 mph - N/A   Overcast
6:56 AM 51.3 °F - 47.5 °F 87% 29.89 in 10.0 mi ENE 9.2 mph - N/A   Overcast
7:15 AM 51.4 °F - 47.3 °F 86% 29.87 in 10.0 mi ENE 8.1 mph - N/A   Overcast
7:16 AM 51.4 °F - 47.3 °F 86% 29.88 in 10.0 mi ENE 8.1 mph - N/A   Overcast
7:35 AM 51.4 °F - 46.9 °F 85% 29.86 in 10.0 mi ENE 10.4 mph - N/A   Overcast
7:36 AM 51.6 °F - 46.8 °F 83% 29.86 in 10.0 mi ENE 10.4 mph - N/A   Overcast
7:59 AM 51.8 °F - 46.4 °F 82% 29.84 in 10.0 mi ENE 8.1 mph - N/A   Overcast
8:17 AM 51.6 °F - 45.9 °F 81% 29.82 in 10.0 mi ENE 9.2 mph - N/A   Overcast
8:35 AM 51.8 °F - 45.9 °F 80% 29.83 in 10.0 mi East 9.2 mph - N/A   Overcast
8:55 AM 52.0 °F - 46.2 °F 81% 29.84 in 10.0 mi East 6.9 mph - N/A   Overcast
9:15 AM 52.7 °F - 46.4 °F 79% 29.83 in 10.0 mi ENE 6.9 mph - N/A   Overcast
9:38 AM 53.2 °F - 46.8 °F 79% 29.81 in 10.0 mi East 8.1 mph - N/A   Overcast
9:56 AM 54.3 °F - 47.1 °F 77% 29.81 in 10.0 mi East 8.1 mph - N/A   Overcast
10:15 AM 54.9 °F - 47.7 °F 77% 29.80 in 10.0 mi East 6.9 mph - N/A   Mostly Cloudy
10:16 AM 54.9 °F - 47.7 °F 77% 29.80 in 10.0 mi East 8.1 mph - N/A   Mostly Cloudy
10:35 AM 57.7 °F - 48.4 °F 71% 29.78 in 10.0 mi East 12.7 mph 16.1 mph N/A   Overcast
10:59 AM 59.4 °F - 49.3 °F 69% 29.76 in 10.0 mi ESE 13.8 mph 20.7 mph N/A   Mostly Cloudy
11:17 AM 59.9 °F - 50.2 °F 70% 29.75 in 10.0 mi ESE 13.8 mph 21.9 mph N/A   Scattered Clouds
11:35 AM 60.4 °F - 51.8 °F 73% 29.75 in 10.0 mi ESE 16.1 mph 26.5 mph N/A   Mostly Cloudy
11:55 AM 60.8 °F - 52.7 °F 75% 29.74 in 10.0 mi ESE 17.3 mph 24.2 mph N/A   Mostly Cloudy
12:15 PM 60.4 °F - 53.4 °F 78% 29.73 in 10.0 mi SE 17.3 mph 25.3 mph N/A Rain Rain
12:20 PM 60.3 °F - 54.0 °F 80% 29.73 in 10.0 mi SE 16.1 mph 21.9 mph N/A Rain Rain
12:38 PM 59.9 °F - 55.4 °F 85% 29.72 in 10.0 mi SE 19.6 mph 26.5 mph 0.01 in Rain Light Rain
12:56 PM 59.5 °F - 56.3 °F 89% 29.70 in 7.0 mi ESE 17.3 mph - 0.03 in Rain Light Rain
1:15 PM 59.4 °F - 56.5 °F 90% 29.68 in 7.0 mi ESE 18.4 mph 23.0 mph 0.01 in Rain Light Rain
1:16 PM 59.4 °F - 56.5 °F 90% 29.68 in 7.0 mi ESE 16.1 mph 23.0 mph 0.01 in Rain Light Rain
1:35 PM 59.7 °F - 56.5 °F 89% 29.66 in 10.0 mi ESE 17.3 mph 23.0 mph 0.02 in Rain Light Rain
1:36 PM 59.9 °F - 56.5 °F 88% 29.66 in 10.0 mi ESE 18.4 mph 23.0 mph 0.02 in Rain Light Rain
1:59 PM 59.9 °F - 56.3 °F 88% 29.64 in 10.0 mi ESE 18.4 mph 25.3 mph 0.02 in Rain Rain
2:17 PM 59.5 °F - 56.3 °F 89% 29.60 in 7.0 mi ESE 16.1 mph 27.6 mph 0.01 in Rain Light Rain
2:35 PM 59.9 °F - 56.3 °F 88% 29.59 in 10.0 mi ESE 17.3 mph 25.3 mph 0.01 in   Overcast
2:57 PM 60.3 °F - 55.8 °F 85% 29.59 in 10.0 mi SE 20.7 mph 34.5 mph 0.01 in   Overcast
3:15 PM 60.4 °F - 55.4 °F 83% 29.57 in 10.0 mi SE 27.6 mph 35.7 mph N/A   Overcast
3:35 PM 60.8 °F - 54.9 °F 81% 29.58 in 10.0 mi SSE 18.4 mph 28.8 mph N/A   Overcast
3:58 PM 60.8 °F - 54.9 °F 81% 29.58 in 10.0 mi North - - N/A   Overcast
4:15 PM 60.8 °F - 55.0 °F 81% 29.59 in 10.0 mi SSE 19.6 mph - N/A   Overcast
4:35 PM 60.6 °F - 55.4 °F 83% 29.59 in 7.0 mi SSE 17.3 mph 29.9 mph 0.01 in Rain Heavy Rain
4:55 PM 59.9 °F - 56.7 °F 89% 29.58 in 4.0 mi SSE 17.3 mph 25.3 mph 0.05 in Rain Heavy Rain
5:18 PM 59.5 °F - 57.2 °F 92% 29.57 in 4.0 mi SE 18.4 mph 25.3 mph N/A   Drizzle
5:36 PM 59.4 °F - 57.4 °F 93% 29.57 in 7.0 mi SE 15.0 mph 23.0 mph N/A   Light Drizzle
5:55 PM 59.7 °F - 57.6 °F 93% 29.57 in 10.0 mi SSE 16.1 mph 25.3 mph N/A   Overcast
5:56 PM 59.7 °F - 57.6 °F 93% 29.57 in 10.0 mi SSE 15.0 mph 25.3 mph N/A   Overcast
6:15 PM 59.5 °F - 57.7 °F 94% 29.55 in 4.0 mi SSE 11.5 mph 19.6 mph 0.03 in Rain Rain
6:39 PM 59.9 °F - 58.1 °F 94% 29.54 in 10.0 mi SE 15.0 mph 24.2 mph 0.03 in   Overcast
6:57 PM 60.3 °F - 58.1 °F 93% 29.54 in 10.0 mi SE 16.1 mph 21.9 mph 0.03 in   Overcast
7:15 PM 60.6 °F - 58.1 °F 91% 29.54 in 10.0 mi SSE 15.0 mph 20.7 mph N/A   Overcast
7:16 PM 60.8 °F - 58.1 °F 91% 29.54 in 10.0 mi SSE 12.7 mph 20.7 mph N/A   Overcast
7:35 PM 60.8 °F - 58.3 °F 91% 29.53 in 10.0 mi SSE 13.8 mph 18.4 mph N/A   Overcast
7:36 PM 60.8 °F - 58.3 °F 91% 29.53 in 10.0 mi SSE 13.8 mph 18.4 mph N/A   Overcast
7:55 PM 61.2 °F - 58.5 °F 91% 29.55 in 10.0 mi South 8.1 mph - N/A   Overcast
8:17 PM 61.2 °F - 58.5 °F 91% 29.53 in 10.0 mi SSE 9.2 mph - N/A   Overcast
8:36 PM 61.7 °F - 58.5 °F 89% 29.54 in 10.0 mi South 8.1 mph - N/A   Overcast
8:55 PM 62.4 °F - 57.2 °F 83% 29.54 in 10.0 mi SSW 16.1 mph 20.7 mph N/A   Overcast
8:56 PM 62.6 °F - 57.0 °F 82% 29.53 in 10.0 mi SSW 15.0 mph 20.7 mph N/A   Overcast
9:15 PM 63.0 °F - 56.3 °F 79% 29.54 in 10.0 mi SSW 15.0 mph 21.9 mph N/A   Overcast
9:16 PM 63.0 °F - 56.3 °F 79% 29.54 in 10.0 mi SSW 15.0 mph 21.9 mph N/A   Overcast
9:39 PM 61.7 °F - 56.3 °F 82% 29.54 in 10.0 mi South 11.5 mph - N/A   Scattered Clouds
9:57 PM 61.0 °F - 56.3 °F 85% 29.55 in 10.0 mi South 10.4 mph - N/A   Mostly Cloudy
10:15 PM 61.0 °F - 56.5 °F 85% 29.54 in 10.0 mi South 12.7 mph 18.4 mph N/A   Mostly Cloudy
10:16 PM 61.2 °F - 56.5 °F 85% 29.54 in 10.0 mi South 12.7 mph 18.4 mph N/A   Mostly Cloudy
10:35 PM 61.2 °F - 55.9 °F 83% 29.55 in 10.0 mi South 16.1 mph - N/A   Scattered Clouds
10:36 PM 61.2 °F - 55.9 °F 83% 29.55 in 10.0 mi South 16.1 mph - N/A   Scattered Clouds
10:55 PM 59.4 °F - 48.6 °F 67% 29.58 in 10.0 mi SW 23.0 mph 34.5 mph N/A Rain Light Rain
11:00 PM 57.9 °F - 48.6 °F 71% 29.58 in 10.0 mi SW 15.0 mph 33.4 mph N/A Rain Rain
11:19 PM 55.2 °F - 48.7 °F 79% 29.59 in 7.0 mi SW 20.7 mph 27.6 mph 0.01 in Rain Rain
11:37 PM 54.9 °F - 48.6 °F 79% 29.59 in 10.0 mi SW 11.5 mph 17.3 mph 0.02 in   Overcast
11:55 PM 55.6 °F - 47.5 °F 74% 29.59 in 10.0 mi SW 15.0 mph 20.7 mph 0.02 in   Overcast
11:56 PM 55.8 °F - 47.5 °F 74% 29.59 in 10.0 mi SW 15.0 mph 20.7 mph 0.02 in   Overcast